カタログに戻る

ERS 18

Lost科学HEO
NORAD 2767·PAYLOAD·🇺🇸 United States

打ち上げ Apr 28, 1967 から Cape Canaveral Space Force Station

Loading…

次のパス (今後24時間)

TLE

古いSource: Space-Track

元期: Jan 8, 1975, 22:44 UTC

1 02767U 67040C   75008.94786308 -.00000460  00000-0  10000-3 0  9999
2 02767  35.1720 156.4408 7415800 186.7973 149.8305  0.50861092 13832

AllMySatでERS 18をリアルタイム追跡

Download on the App Store